Portland Hillsboro, OR

3:22 PM PST on February 21, 2018 (GMT -0800)
Portland-Hillsboro

Weather History for KHIO - June, 2013

Change the Weather History Date:

Saturday, June 29, 2013

  Actual Average Record
Temperature  
Mean Temperature 74 °F 63 °F  
Max Temperature 87 °F 76 °F 98 °F (1951)
Min Temperature 61 °F 50 °F 31 °F (1935)
Degree Days  
Heating Degree Days 0 4  
Month to date heating degree days 106 153  
Since 1 July heating degree days 4737 5003  
Cooling Degree Days 9 1  
Month to date cooling degree days 27 15  
Year to date cooling degree days 33 21  
Growing Degree Days 24 (Base 50)    
Moisture  
Dew Point 59 °F    
Average Humidity 65    
Maximum Humidity 90    
Minimum Humidity 40    
Precipitation  
Precipitation 0.00 in 0.03 in 0.63 in (1984)
Month to date precipitation 1.31 1.37  
Year to date precipitation 12.77 20.86  
Snow  
Snow 0.00 in - - ()
Month to date snowfall 0.0  
Since 1 June snowfall 0.0  
Since 1 July snowfall 0.0  
Snow Depth 0.00 in    
Sea Level Pressure  
Sea Level Pressure 30.04 in    
Wind  
Wind Speed 3 mph (NNW)    
Max Wind Speed 9 mph    
Max Gust Speed 14 mph    
Visibility 10 miles    
Events      
T = Trace of Precipitation, MM = Missing Value Source: NWS Daily Summary

Daily Weather History Graph

Daily Weather History Graph

Search for Another Location

Airport or City:

Trip Planner

Search our weather history database for the weather conditions in past years. The results will help you decide how hot, cold, wet, or windy it might be!

Date:

Astronomy

Jun. 29, 2013 Rise Set
Actual Time 5:25 AM PDT 9:04 PM PDT
Civil Twilight 4:48 AM PDT 9:42 PM PDT
Nautical Twilight 3:57 AM PDT 10:32 PM PDT
Astronomical Twilight 2:49 AM PDT 11:40 PM PDT
Moon 12:15 AM PDT (6/29) 1:06 PM PDT (6/29)
Length of Visible Light 16h 54m
Length of Day
15h 38m
Waning Gibbous, 54% of the Moon is Illuminated
Jun 29
Waning Gibbous
Jun 29
Last Quarter
Jul 8
New
Jul 15
First Quarter
Jul 22
Full

Hourly Weather History & Observations

Time (PDT) Temp. Heat Index Dew Point Humidity Pressure Visibility Wind Dir Wind Speed Gust Speed Precip Events Conditions
12:53 AM 68.0 °F - 57.0 °F 68% 30.08 in 10.0 mi West 6.9 mph - N/A   Overcast
1:53 AM 64.9 °F - 59.0 °F 81% 30.08 in 10.0 mi Calm Calm - N/A   Clear
2:53 AM 64.9 °F - 57.0 °F 75% 30.08 in 10.0 mi West 3.5 mph - N/A   Clear
3:53 AM 63.0 °F - 57.9 °F 84% 30.08 in 10.0 mi Calm Calm - N/A   Clear
4:53 AM 62.1 °F - 57.9 °F 86% 30.09 in 10.0 mi Calm Calm - N/A   Clear
5:53 AM 62.1 °F - 59.0 °F 90% 30.10 in 10.0 mi West 4.6 mph - N/A   Clear
6:53 AM 64.0 °F - 60.1 °F 87% 30.09 in 10.0 mi Calm Calm - N/A   Clear
7:53 AM 66.9 °F - 60.1 °F 79% 30.09 in 10.0 mi Calm Calm - N/A   Clear
8:53 AM 70.0 °F - 59.0 °F 68% 30.09 in 10.0 mi Calm Calm - N/A   Clear
9:53 AM 72.0 °F - 59.0 °F 64% 30.09 in 10.0 mi Calm Calm - N/A   Clear
10:53 AM 75.9 °F - 57.9 °F 54% 30.09 in 10.0 mi Variable 3.5 mph - N/A   Clear
11:53 AM 78.1 °F - 55.9 °F 46% 30.08 in 10.0 mi Calm Calm - N/A   Clear
12:53 PM 81.0 °F 81.0 °F 57.0 °F 44% 30.06 in 10.0 mi WNW 4.6 mph - N/A   Clear
1:53 PM 82.0 °F 81.7 °F 57.0 °F 42% 30.04 in 10.0 mi NW 4.6 mph - N/A   Clear
2:53 PM 84.9 °F 84.4 °F 59.0 °F 41% 30.02 in 10.0 mi Variable 4.6 mph - N/A   Clear
3:53 PM 86.0 °F 85.7 °F 60.1 °F 41% 30.01 in 10.0 mi NNE 8.1 mph - N/A   Clear
4:53 PM 84.9 °F 84.8 °F 60.1 °F 43% 29.99 in 10.0 mi Calm Calm - N/A   Clear
5:53 PM 87.1 °F 86.7 °F 60.1 °F 40% 29.98 in 10.0 mi Calm Calm - N/A   Clear
6:53 PM 84.9 °F 85.9 °F 63.0 °F 48% 29.97 in 10.0 mi NNE 8.1 mph - N/A   Clear
7:53 PM 82.9 °F 83.7 °F 62.1 °F 49% 29.96 in 10.0 mi NE 5.8 mph - N/A   Clear
8:53 PM 79.0 °F - 61.0 °F 54% 29.96 in 10.0 mi NE 4.6 mph - N/A   Clear
9:53 PM 72.0 °F - 63.0 °F 73% 29.98 in 10.0 mi North 3.5 mph - N/A   Clear
10:53 PM 70.0 °F - 63.0 °F 78% 29.97 in 10.0 mi WNW 5.8 mph - N/A   Clear
11:53 PM 68.0 °F - 62.1 °F 81% 29.97 in 10.0 mi WNW 5.8 mph - N/A   Clear